SCP
-0 -0 -0 -0 -0 -0 -0 -0 -0 -0 0 0 0 0 0 0 0 -0 -0 -0 0 0 0 -0 -0 0 -0 -0 -0 0 0 0 -0 0 0 -0 -0 0 -0 -0 -0 0 -0 -0 0
-0 -0 -0 -0 -0 -0 -0 -0 -0 -0 -0 0 0 0 0 0 -0 -0 0 0 0 0 0 0 0 0 0 0 0 0 -0 0 0 -0 0 -0 -0 -0 -0 -0 -0 -0 -0 -0 0
-0 -0 -0 -0 0 0 0 0 -0 0 -0 -0 0 0 0 0 -0 -0 0 -0 0 0 0 0 0 0 0 0 -0 -0 0 0 -0 0 0 -0 -0 -0 -0 -0 -0 -0 -0 0 0
0 0 0 0 0 0 0 0 0 0 0 0 0 0 0 0 0 0 0 -0 0 0 0 0 0 0 0 0 0 0 -0 -0 0 0 -0 -0 -0 -0 -0 -0 -0 -0 -0 0 0
0 0 0 0 0 0 0 0 0 0 0 0 0 0 0 0 0 -0 0 0 0 0 0 0 0 0 0 0 0 0 -0 0 0 -0 0 -0 -0 -0 -0 -0 -0 -0 -0 -0 -0
0 0 0 0 0 0 0 0 0 0 0 0 0 0 0 0 0 0 0 0 -0 0 0 0 0 0 0 0 0 0 -0 -0 0 -0 0 -0 -0 -0 -0 -0 -0 -0 -0 -0 -0
0 0 0 0 0 0 0 0 0 0 0 0 0 -0 0 0 0 0 0 0 0 0 0 0 0 0 0 0 0 0 0 0 0 -0 0 -0 0 -0 -0 -0 -0 -0 -0 -0 -0
0 0 0 0 0 0 0 0 0 0 0 -0 0 -0 0 0 0 0 0 0 0 0 0 0 0 0 0 0 0 0 0 0 0 0 -0 0 0 -0 -0 -0 -0 -0 -0 -0 -0
0 0 0 0 0 0 0 0 0 0 -0 0 0 0 0 0 0 0 0 0 0 0 0 0 0 0 0 0 0 0 0 0 0 0 -0 0 0 -0 -0 -0 -0 -0 -0 -0 -0
0 0 0 0 0 0 0 0 0 0 0 -0 0 0 0 0 0 0 0 0 0 0 0 0 0 0 0 0 0 0 0 0 0 0 0 -0 -0 -0 -0 -0 -0 -0 -0 -0 -0
0 0 0 0 0 0 0 0 0 0 0 0 -0 0 -0 0 0 0 0 0 0 0 0 0 0 0 0 0 0 0 0 -0 -0 -0 -0 0 -0 0 0 -0 -0 -0 -0 -0 -0
0 0 0 -0 -0 -0 0 -0 0 -0 0 0 -0 -0 -0 0 0 0 0 0 0 0 0 0 0 0 0 0 0 0 0 0 0 0 0 0 0 0 -0 -0 -0 -0 -0 -0 -0
0 0 -0 -0 -0 0 0 0 0 0 -0 0 0 0 0 0 0 0 0 0 0 0 0 0 0 0 0 0 0 0 0 0 0 0 0 0 0 0 -0 0 -0 -0 -0 -0 -0
-0 -0 -0 -0 0 0 0 -0 0 0 -0 -0 -0 -0 -0 0 0 0 0 0 0 0 0 0 0 0 0 0 0 0 0 0 0 0 0 0 0 -0 -0 -0 -0 -0 -0 -0 -0
-0 -0 -0 -0 0 0 0 0 0 0 -0 -0 -0 0 0 0 0 0 -0 0 0 0 0 0 0 0 0 0 0 -0 0 0 0 0 0 0 0 0 0 -0 -0 -0 -0 -0 -0
-0 -0 -0 0 0 0 0 0 0 0 -0 0 0 -0 -0 -0 0 0 0 0 0 0 0 0 0 0 0 0 0 0 0 0 0 0 -0 0 0 0 -0 0 -0 0 -0 -0 -0
-0 -0 0 0 0 0 0 0 0 0 0 0 -0 -0 0 0 0 0 0 0 0 0 0 0 0 0 0 0 0 0 0 0 0 0 0 -0 0 0 -0 -0 -0 0 -0 -0 -0
-0 -0 0 0 0 0 0 0 0 0 0 0 0 0 0 0 0 0 0 0 0 0 0 0 0 0 0 0 0 0 0 0 0 0 0 0 0 0 0 -0 0 0 0 0 -0
-0 0 0 0 -0 0 0 0 0 0 0 0 0 0 0 0 0 0 0 0 0 0 0 0 0 0 0 0 0 0 0 0 0 0 0 0 0 0 0 0 0 0 0 0 0
0 0 0 0 0 0 0 0 0 0 0 0 0 0 0 0 0 0 0 0 0 0 0 0 0 0 0 0 0 0 0 0 0 0 0 0 0 0 0 0 0 0 0 0 -0
0 0 0 0 0 0 0 0 0 0 0 0 0 0 0 0 0 0 0 0 0 0 0 0 0 0 -0 0 0 0 0 0 0 -0 0 0 -0 0 -0 -0 -0 -0 -0 0 0
0 0 0 0 0 0 0 0 0 0 0 0 0 0 0 0 0 0 0 0 0 0 0 0 0 0 0 0 0 0 0 0 0 0 0 0 0 0 0 0 -0 -0 -0 0 0
0 0 0 0 0 0 -0 0 0 0 0 0 0 0 0 0 0 0 0 0 0 0 0 0 0 -0 -0 0 0 0 0 0 0 0 0 0 -0 -0 -0 0 -0 0 -0 -0 -0
0 0 0 0 0 0 0 0 0 0 0 0 0 0 0 0 0 -0 -0 0 0 0 0 0 0 0 0 0 0 0 0 0 0 0 -0 -0 0 0 0 0 0 0 0 0 0
0 0 0 0 0 0 0 0 0 0 0 0 -0 -0 0 0 0 0 0 -0 0 0 0 0 0 0 0 0 -0 0 0 0 0 0 0 -0 -0 -0 0 0 0 0 1 1 0
0 0 0 0 0 0 0 -0 0 0 0 0 0 -0 0 0 0 0 0 0 0 0 0 0 0 0 -0 -0 -0 0 0 0 0 0 0 0 0 0 0 0 0 0 0 0 1
0 0 0 0 0 0 -0 -0 -0 0 0 0 0 0 0 -0 0 0 0 0 0 0 0 0 0 0 -0 -0 0 0 0 0 0 0 0 0 0 0 0 0 0 0 0 0 1
Wind_Speed_500mb
37 39 40 41 41 42 41 42 42 41 41 41 40 40 41 42 41 43 51 39 31 20 27 20 18 16 14 36 39 25 7 17 4 12 11 29 35 33 54 71 48 18 74 83 75
41 43 45 45 45 46 46 45 43 43 43 41 40 38 40 42 45 51 41 32 34 32 30 24 24 24 28 31 31 7 2 14 8 14 27 29 47 51 42 57 51 74 68 76 78
44 45 47 47 49 49 48 48 46 45 46 44 39 36 34 34 40 16 14 10 29 44 36 23 29 38 38 39 49 17 34 23 24 33 40 37 33 52 44 43 77 81 81 78 70
48 49 51 52 52 51 50 49 46 47 46 46 40 34 29 22 9 8 10 9 10 34 33 31 33 43 22 19 54 17 65 58 12 39 43 21 48 40 42 57 83 89 88 75 71
50 51 52 53 53 53 51 48 47 45 46 45 40 34 26 14 45 28 36 23 20 27 47 38 37 39 22 23 39 28 28 32 20 51 32 33 37 44 52 82 86 79 76 75 66
52 54 56 57 57 55 52 49 46 45 45 43 42 33 22 16 18 14 31 25 25 24 42 41 28 41 34 33 21 42 42 32 29 45 34 40 42 49 65 81 80 74 68 71 65
55 56 57 59 58 57 54 48 45 44 41 41 35 29 27 55 12 10 14 25 13 18 25 33 44 47 36 19 44 50 17 17 9 29 21 52 21 32 74 79 76 69 63 64 64
55 56 56 57 57 56 52 47 43 41 37 35 27 22 24 29 10 26 22 26 19 33 20 31 25 41 42 39 44 23 15 11 12 18 15 20 19 33 72 75 68 69 64 65 67
55 57 57 58 59 56 49 46 37 32 31 27 20 14 28 16 25 31 33 31 31 26 36 27 25 31 34 12 13 12 14 16 7 20 21 12 20 31 66 68 64 68 65 64 67
56 57 58 57 56 45 40 36 25 26 12 20 11 16 28 16 11 11 24 36 33 34 36 24 18 9 9 12 21 15 14 13 16 9 21 22 20 23 56 62 63 66 67 65 71
56 58 58 55 50 29 39 42 43 9 38 27 35 34 59 36 33 19 12 31 37 39 20 38 13 23 23 22 24 25 27 12 43 27 20 23 21 21 45 52 53 65 69 69 72
54 56 56 52 37 24 30 28 26 30 36 54 65 67 82 70 44 54 32 30 36 25 18 18 32 24 26 29 33 37 36 23 16 16 15 19 12 23 27 46 64 67 70 71 74
54 57 56 52 22 19 22 23 27 33 14 52 38 39 49 38 55 62 49 45 18 28 26 25 24 34 36 35 35 39 30 19 11 9 3 17 9 17 27 15 60 69 77 84 83
52 52 52 57 8 17 16 34 32 27 8 16 12 9 14 29 27 55 59 50 27 33 35 25 35 36 40 35 29 31 28 36 18 10 11 15 4 15 34 29 40 61 69 75 83
51 46 49 35 39 22 24 38 34 22 10 10 15 18 10 21 26 33 66 55 28 35 23 32 26 45 38 38 30 40 20 32 25 13 6 19 14 21 31 25 32 54 76 81 87
51 42 49 25 32 17 37 43 29 4 13 10 16 16 15 30 29 25 48 52 29 24 31 25 31 29 38 32 39 30 24 30 12 9 4 21 21 25 43 29 16 34 77 84 86
52 43 29 28 15 16 28 32 5 8 21 14 43 24 10 15 16 8 30 30 23 19 21 25 37 33 30 25 26 31 13 11 6 13 11 40 15 16 59 59 61 51 80 86 86
53 44 16 14 10 25 25 11 7 18 27 40 33 29 16 14 18 24 17 23 30 32 14 17 27 42 27 31 22 26 24 12 14 10 12 20 13 13 27 65 55 24 21 53 80
54 36 12 4 7 14 20 6 8 10 30 32 28 18 18 15 24 32 20 16 30 33 25 20 32 24 41 33 29 21 26 22 11 16 3 14 6 12 18 27 37 38 37 40 22
55 40 6 19 1 15 5 10 17 25 24 27 15 20 22 32 26 39 18 12 11 19 30 35 14 28 32 37 36 24 12 20 11 13 12 13 5 17 15 21 18 21 23 37 89
35 21 15 7 19 21 9 14 22 22 27 17 23 19 27 28 30 30 15 39 48 42 39 14 23 46 21 23 34 14 22 10 12 12 9 6 13 25 42 33 36 36 63 81 97
17 7 6 12 10 12 14 13 21 25 26 13 11 16 20 33 25 18 19 26 74 47 25 13 7 26 41 34 21 31 21 19 15 19 7 8 10 18 12 10 36 64 76 93 89
22 22 8 5 6 10 21 19 28 21 12 14 17 20 25 22 17 23 25 46 65 35 15 19 10 11 14 21 22 24 23 20 7 5 23 12 13 13 29 24 40 41 53 79 84
14 7 15 22 23 14 17 15 18 10 15 17 13 17 21 25 23 25 46 29 76 61 69 33 7 7 13 21 21 15 37 31 23 15 21 22 8 24 16 17 31 12 47 58 49
8 8 23 10 21 21 23 14 21 19 18 10 8 16 21 25 24 33 43 29 40 58 41 8 18 13 33 38 33 40 37 38 35 33 15 20 17 22 20 18 14 37 27 13 24
10 12 19 31 37 26 20 14 20 19 13 3 10 17 15 25 25 33 38 21 17 26 28 23 12 25 34 32 35 36 41 50 44 36 29 21 14 9 39 47 32 31 27 9 7
7 6 12 20 18 15 14 18 37 16 9 8 9 12 22 23 27 41 49 44 40 35 33 20 8 15 15 17 25 23 26 22 40 27 19 20 15 21 33 36 8 23 27 45 23
Wind_Direction_500mb
2 359 355 353 350 347 344 340 336 331 325 323 322 316 309 306 300 291 278 276 249 235 249 274 286 242 224 249 248 232 178 266 263 180 87 110 106 123 146 141 164 188 150 151 148
359 356 352 351 349 347 344 342 339 336 331 323 319 317 312 309 306 293 299 268 235 227 236 247 242 252 233 245 245 229 214 262 313 158 140 157 131 134 138 153 119 120 141 145 154
354 351 349 346 344 343 342 339 337 334 332 329 322 318 315 312 315 288 339 262 224 224 237 236 253 260 245 245 254 153 261 263 170 136 113 134 134 140 138 134 140 142 153 157 166
350 349 345 342 339 337 336 336 334 332 330 329 323 316 314 304 284 204 337 352 246 216 231 236 244 260 262 246 257 223 220 243 121 126 143 153 145 151 157 143 149 149 153 162 164
350 348 344 339 335 332 330 329 329 329 327 326 324 314 312 283 258 243 292 288 278 231 220 220 236 248 243 253 264 269 265 284 140 135 142 145 116 112 114 131 142 149 156 159 166
348 347 344 340 336 332 325 323 321 323 323 321 317 310 298 251 298 319 256 273 271 240 221 211 225 233 256 263 269 282 290 273 147 133 162 121 122 122 129 135 144 151 159 161 171
345 344 342 337 333 329 324 321 316 314 314 315 320 299 273 260 281 261 273 274 240 254 206 211 227 252 250 280 277 284 301 307 244 146 132 124 120 126 139 141 148 156 167 168 176
340 341 339 337 335 328 324 321 317 305 304 302 312 296 263 295 242 227 227 234 253 230 232 218 242 257 271 271 292 291 306 291 278 148 148 150 137 142 145 145 152 161 173 178 181
340 340 339 339 337 333 332 330 318 305 300 296 293 279 269 303 255 241 231 240 230 239 233 247 259 246 255 269 304 282 246 240 346 154 155 113 149 147 148 151 159 166 178 181 184
339 339 338 340 339 339 355 347 333 318 330 305 214 277 260 243 338 256 235 221 231 222 240 237 261 261 262 211 221 237 239 249 145 270 119 130 159 158 162 159 166 169 178 182 186
338 337 338 340 341 359 358 16 12 347 310 264 262 247 277 270 293 287 244 217 233 230 217 219 214 228 227 232 245 251 254 219 174 219 126 166 168 175 172 169 170 171 176 184 188
335 334 336 339 342 3 355 16 6 320 301 286 269 257 252 264 281 270 256 235 219 235 196 218 226 220 235 233 234 251 260 268 217 111 98 97 239 205 183 179 174 176 177 184 188
335 336 336 335 337 346 346 349 347 338 282 295 258 244 249 235 242 249 253 228 207 228 233 210 231 218 230 234 229 237 246 258 145 312 61 117 358 327 305 245 181 182 184 183 190
335 336 334 333 3 333 12 344 341 336 294 273 210 213 223 234 222 237 234 237 212 215 233 220 227 220 232 238 223 244 230 249 142 133 187 126 141 329 281 286 193 185 187 189 190
333 335 327 340 315 315 332 339 328 315 304 165 169 177 172 183 271 209 210 229 227 220 213 232 203 230 222 232 234 241 240 241 177 155 184 108 79 249 229 265 230 190 190 192 193
332 333 322 332 294 340 347 320 319 239 250 273 154 182 189 211 233 249 190 223 244 232 245 250 238 224 231 241 234 249 249 264 214 156 16 268 191 171 190 179 275 243 190 194 191
332 328 313 317 313 359 349 327 269 240 317 344 343 356 38 339 321 185 179 205 219 207 229 249 250 261 247 235 245 231 246 251 293 209 180 237 228 229 177 174 202 221 192 194 189
334 326 289 305 33 354 328 306 261 287 308 335 351 338 325 12 335 321 319 189 217 236 202 223 237 230 240 232 216 224 215 207 203 208 231 196 209 233 128 171 177 172 144 183 186
337 334 330 197 52 326 313 267 266 280 357 341 333 327 320 351 350 319 280 275 207 219 231 204 240 260 228 246 219 246 221 224 235 269 235 226 161 9 125 149 169 180 187 181 179
337 340 40 135 119 322 271 248 298 325 4 0 346 8 350 352 346 355 321 280 315 199 224 253 272 251 243 229 255 211 219 235 228 216 258 291 266 177 201 187 177 147 177 213 215
343 318 144 190 302 283 247 263 287 22 20 9 343 330 332 328 328 326 271 312 22 351 340 254 224 264 279 227 219 240 229 254 200 169 199 241 278 188 188 176 173 172 174 194 215
353 284 46 330 277 232 236 274 19 3 358 349 320 336 343 343 311 305 278 301 318 327 327 356 305 239 251 264 253 222 208 183 208 244 254 190 268 114 65 219 195 180 192 203 201
319 277 351 251 285 331 341 356 359 336 356 22 4 358 348 332 317 306 301 324 305 307 333 345 4 316 273 266 268 236 216 212 189 164 228 215 247 172 177 163 237 242 201 188 187
313 302 360 347 305 359 357 343 317 351 46 25 347 329 315 300 288 285 296 301 309 305 303 322 259 254 280 289 312 257 217 205 212 226 239 233 283 54 12 59 51 314 140 154 156
288 328 354 308 332 343 309 307 305 334 324 303 195 287 317 303 282 282 289 346 324 309 287 296 274 278 279 278 290 285 248 212 214 225 209 228 207 192 126 52 80 41 14 153 157
308 347 337 306 295 290 303 341 267 265 271 322 287 286 288 274 268 292 303 328 277 326 331 310 281 288 277 297 291 283 290 201 224 225 234 253 228 231 122 129 123 162 285 275 132
329 335 327 287 293 293 7 308 303 328 319 289 272 317 293 277 295 297 277 281 275 290 293 287 7 343 289 290 288 272 269 263 208 233 199 217 232 148 144 132 190 169 296 290 146
Wind_Speed_850mb
37 39 40 41 41 42 41 42 42 41 41 41 40 40 41 42 41 43 51 39 31 20 27 20 18 16 14 36 39 25 7 17 4 12 11 29 35 33 54 71 48 18 74 83 75
41 43 45 45 45 46 46 45 43 43 43 41 40 38 40 42 45 51 41 32 34 32 30 24 24 24 28 31 31 7 2 14 8 14 27 29 47 51 42 57 51 74 68 76 78
44 45 47 47 49 49 48 48 46 45 46 44 39 36 34 34 40 16 14 10 29 44 36 23 29 38 38 39 49 17 34 23 24 33 40 37 33 52 44 43 77 81 81 78 70
48 49 51 52 52 51 50 49 46 47 46 46 40 34 29 22 9 8 10 9 10 34 33 31 33 43 22 19 54 17 65 58 12 39 43 21 48 40 42 57 83 89 88 75 71
50 51 52 53 53 53 51 48 47 45 46 45 40 34 26 14 45 28 36 23 20 27 47 38 37 39 22 23 39 28 28 32 20 51 32 33 37 44 52 82 86 79 76 75 66
52 54 56 57 57 55 52 49 46 45 45 43 42 33 22 16 18 14 31 25 25 24 42 41 28 41 34 33 21 42 42 32 29 45 34 40 42 49 65 81 80 74 68 71 65
55 56 57 59 58 57 54 48 45 44 41 41 35 29 27 55 12 10 14 25 13 18 25 33 44 47 36 19 44 50 17 17 9 29 21 52 21 32 74 79 76 69 63 64 64
55 56 56 57 57 56 52 47 43 41 37 35 27 22 24 29 10 26 22 26 19 33 20 31 25 41 42 39 44 23 15 11 12 18 15 20 19 33 72 75 68 69 64 65 67
55 57 57 58 59 56 49 46 37 32 31 27 20 14 28 16 25 31 33 31 31 26 36 27 25 31 34 12 13 12 14 16 7 20 21 12 20 31 66 68 64 68 65 64 67
56 57 58 57 56 45 40 36 25 26 12 20 11 16 28 16 11 11 24 36 33 34 36 24 18 9 9 12 21 15 14 13 16 9 21 22 20 23 56 62 63 66 67 65 71
56 58 58 55 50 29 39 42 43 9 38 27 35 34 59 36 33 19 12 31 37 39 20 38 13 23 23 22 24 25 27 12 43 27 20 23 21 21 45 52 53 65 69 69 72
54 56 56 52 37 24 30 28 26 30 36 54 65 67 82 70 44 54 32 30 36 25 18 18 32 24 26 29 33 37 36 23 16 16 15 19 12 23 27 46 64 67 70 71 74
54 57 56 52 22 19 22 23 27 33 14 52 38 39 49 38 55 62 49 45 18 28 26 25 24 34 36 35 35 39 30 19 11 9 3 17 9 17 27 15 60 69 77 84 83
52 52 52 57 8 17 16 34 32 27 8 16 12 9 14 29 27 55 59 50 27 33 35 25 35 36 40 35 29 31 28 36 18 10 11 15 4 15 34 29 40 61 69 75 83
51 46 49 35 39 22 24 38 34 22 10 10 15 18 10 21 26 33 66 55 28 35 23 32 26 45 38 38 30 40 20 32 25 13 6 19 14 21 31 25 32 54 76 81 87
51 42 49 25 32 17 37 43 29 4 13 10 16 16 15 30 29 25 48 52 29 24 31 25 31 29 38 32 39 30 24 30 12 9 4 21 21 25 43 29 16 34 77 84 86
52 43 29 28 15 16 28 32 5 8 21 14 43 24 10 15 16 8 30 30 23 19 21 25 37 33 30 25 26 31 13 11 6 13 11 40 15 16 59 59 61 51 80 86 86
53 44 16 14 10 25 25 11 7 18 27 40 33 29 16 14 18 24 17 23 30 32 14 17 27 42 27 31 22 26 24 12 14 10 12 20 13 13 27 65 55 24 21 53 80
54 36 12 4 7 14 20 6 8 10 30 32 28 18 18 15 24 32 20 16 30 33 25 20 32 24 41 33 29 21 26 22 11 16 3 14 6 12 18 27 37 38 37 40 22
55 40 6 19 1 15 5 10 17 25 24 27 15 20 22 32 26 39 18 12 11 19 30 35 14 28 32 37 36 24 12 20 11 13 12 13 5 17 15 21 18 21 23 37 89
35 21 15 7 19 21 9 14 22 22 27 17 23 19 27 28 30 30 15 39 48 42 39 14 23 46 21 23 34 14 22 10 12 12 9 6 13 25 42 33 36 36 63 81 97
17 7 6 12 10 12 14 13 21 25 26 13 11 16 20 33 25 18 19 26 74 47 25 13 7 26 41 34 21 31 21 19 15 19 7 8 10 18 12 10 36 64 76 93 89
22 22 8 5 6 10 21 19 28 21 12 14 17 20 25 22 17 23 25 46 65 35 15 19 10 11 14 21 22 24 23 20 7 5 23 12 13 13 29 24 40 41 53 79 84
14 7 15 22 23 14 17 15 18 10 15 17 13 17 21 25 23 25 46 29 76 61 69 33 7 7 13 21 21 15 37 31 23 15 21 22 8 24 16 17 31 12 47 58 49
8 8 23 10 21 21 23 14 21 19 18 10 8 16 21 25 24 33 43 29 40 58 41 8 18 13 33 38 33 40 37 38 35 33 15 20 17 22 20 18 14 37 27 13 24
10 12 19 31 37 26 20 14 20 19 13 3 10 17 15 25 25 33 38 21 17 26 28 23 12 25 34 32 35 36 41 50 44 36 29 21 14 9 39 47 32 31 27 9 7
7 6 12 20 18 15 14 18 37 16 9 8 9 12 22 23 27 41 49 44 40 35 33 20 8 15 15 17 25 23 26 22 40 27 19 20 15 21 33 36 8 23 27 45 23
Wind_Direction_850mb
2 359 355 353 350 347 344 340 336 331 325 323 322 316 309 306 300 291 278 276 249 235 249 274 286 242 224 249 248 232 178 266 263 180 87 110 106 123 146 141 164 188 150 151 148
359 356 352 351 349 347 344 342 339 336 331 323 319 317 312 309 306 293 299 268 235 227 236 247 242 252 233 245 245 229 214 262 313 158 140 157 131 134 138 153 119 120 141 145 154
354 351 349 346 344 343 342 339 337 334 332 329 322 318 315 312 315 288 339 262 224 224 237 236 253 260 245 245 254 153 261 263 170 136 113 134 134 140 138 134 140 142 153 157 166
350 349 345 342 339 337 336 336 334 332 330 329 323 316 314 304 284 204 337 352 246 216 231 236 244 260 262 246 257 223 220 243 121 126 143 153 145 151 157 143 149 149 153 162 164
350 348 344 339 335 332 330 329 329 329 327 326 324 314 312 283 258 243 292 288 278 231 220 220 236 248 243 253 264 269 265 284 140 135 142 145 116 112 114 131 142 149 156 159 166
348 347 344 340 336 332 325 323 321 323 323 321 317 310 298 251 298 319 256 273 271 240 221 211 225 233 256 263 269 282 290 273 147 133 162 121 122 122 129 135 144 151 159 161 171
345 344 342 337 333 329 324 321 316 314 314 315 320 299 273 260 281 261 273 274 240 254 206 211 227 252 250 280 277 284 301 307 244 146 132 124 120 126 139 141 148 156 167 168 176
340 341 339 337 335 328 324 321 317 305 304 302 312 296 263 295 242 227 227 234 253 230 232 218 242 257 271 271 292 291 306 291 278 148 148 150 137 142 145 145 152 161 173 178 181
340 340 339 339 337 333 332 330 318 305 300 296 293 279 269 303 255 241 231 240 230 239 233 247 259 246 255 269 304 282 246 240 346 154 155 113 149 147 148 151 159 166 178 181 184
339 339 338 340 339 339 355 347 333 318 330 305 214 277 260 243 338 256 235 221 231 222 240 237 261 261 262 211 221 237 239 249 145 270 119 130 159 158 162 159 166 169 178 182 186
338 337 338 340 341 359 358 16 12 347 310 264 262 247 277 270 293 287 244 217 233 230 217 219 214 228 227 232 245 251 254 219 174 219 126 166 168 175 172 169 170 171 176 184 188
335 334 336 339 342 3 355 16 6 320 301 286 269 257 252 264 281 270 256 235 219 235 196 218 226 220 235 233 234 251 260 268 217 111 98 97 239 205 183 179 174 176 177 184 188
335 336 336 335 337 346 346 349 347 338 282 295 258 244 249 235 242 249 253 228 207 228 233 210 231 218 230 234 229 237 246 258 145 312 61 117 358 327 305 245 181 182 184 183 190
335 336 334 333 3 333 12 344 341 336 294 273 210 213 223 234 222 237 234 237 212 215 233 220 227 220 232 238 223 244 230 249 142 133 187 126 141 329 281 286 193 185 187 189 190
333 335 327 340 315 315 332 339 328 315 304 165 169 177 172 183 271 209 210 229 227 220 213 232 203 230 222 232 234 241 240 241 177 155 184 108 79 249 229 265 230 190 190 192 193
332 333 322 332 294 340 347 320 319 239 250 273 154 182 189 211 233 249 190 223 244 232 245 250 238 224 231 241 234 249 249 264 214 156 16 268 191 171 190 179 275 243 190 194 191
332 328 313 317 313 359 349 327 269 240 317 344 343 356 38 339 321 185 179 205 219 207 229 249 250 261 247 235 245 231 246 251 293 209 180 237 228 229 177 174 202 221 192 194 189
334 326 289 305 33 354 328 306 261 287 308 335 351 338 325 12 335 321 319 189 217 236 202 223 237 230 240 232 216 224 215 207 203 208 231 196 209 233 128 171 177 172 144 183 186
337 334 330 197 52 326 313 267 266 280 357 341 333 327 320 351 350 319 280 275 207 219 231 204 240 260 228 246 219 246 221 224 235 269 235 226 161 9 125 149 169 180 187 181 179
337 340 40 135 119 322 271 248 298 325 4 0 346 8 350 352 346 355 321 280 315 199 224 253 272 251 243 229 255 211 219 235 228 216 258 291 266 177 201 187 177 147 177 213 215
343 318 144 190 302 283 247 263 287 22 20 9 343 330 332 328 328 326 271 312 22 351 340 254 224 264 279 227 219 240 229 254 200 169 199 241 278 188 188 176 173 172 174 194 215
353 284 46 330 277 232 236 274 19 3 358 349 320 336 343 343 311 305 278 301 318 327 327 356 305 239 251 264 253 222 208 183 208 244 254 190 268 114 65 219 195 180 192 203 201
319 277 351 251 285 331 341 356 359 336 356 22 4 358 348 332 317 306 301 324 305 307 333 345 4 316 273 266 268 236 216 212 189 164 228 215 247 172 177 163 237 242 201 188 187
313 302 360 347 305 359 357 343 317 351 46 25 347 329 315 300 288 285 296 301 309 305 303 322 259 254 280 289 312 257 217 205 212 226 239 233 283 54 12 59 51 314 140 154 156
288 328 354 308 332 343 309 307 305 334 324 303 195 287 317 303 282 282 289 346 324 309 287 296 274 278 279 278 290 285 248 212 214 225 209 228 207 192 126 52 80 41 14 153 157
308 347 337 306 295 290 303 341 267 265 271 322 287 286 288 274 268 292 303 328 277 326 331 310 281 288 277 297 291 283 290 201 224 225 234 253 228 231 122 129 123 162 285 275 132
329 335 327 287 293 293 7 308 303 328 319 289 272 317 293 277 295 297 277 281 275 290 293 287 7 343 289 290 288 272 269 263 208 233 199 217 232 148 144 132 190 169 296 290 146